TimeMDT,TemperatureF,Dew PointF,Humidity,Sea Level PressureIn,VisibilityMPH,Wind Direction,Wind SpeedMPH,Gust SpeedMPH,PrecipitationIn,Events,Conditions,WindDirDegrees,DateUTC
12:53 AM,25.0,10.9,55,30.12,10.0,NW,5.8,-,N/A,,Clear,310,2014-03-25 06:53:00
1:53 AM,25.0,12.0,58,30.09,10.0,WNW,9.2,-,N/A,,Clear,300,2014-03-25 07:53:00
2:53 AM,24.1,12.0,60,30.09,10.0,WNW,9.2,-,N/A,,Clear,290,2014-03-25 08:53:00
3:53 AM,24.1,14.0,65,30.05,10.0,West,9.2,-,N/A,,Clear,270,2014-03-25 09:53:00
4:53 AM,23.0,12.0,63,30.04,10.0,West,6.9,-,N/A,,Clear,280,2014-03-25 10:53:00
5:53 AM,21.9,12.0,66,30.05,10.0,West,3.5,-,N/A,,Clear,280,2014-03-25 11:53:00
6:53 AM,19.0,12.9,77,30.07,10.0,Calm,Calm,-,N/A,,Clear,0,2014-03-25 12:53:00
7:53 AM,21.0,12.9,71,30.09,10.0,West,3.5,-,N/A,,Clear,270,2014-03-25 13:53:00
8:53 AM,32.0,15.1,50,30.07,10.0,West,4.6,-,N/A,,Clear,280,2014-03-25 14:53:00
9:53 AM,44.1,14.0,30,30.04,10.0,Calm,Calm,-,N/A,,Clear,0,2014-03-25 15:53:00
10:53 AM,50.0,10.0,20,30.01,10.0,SE,11.5,-,N/A,,Clear,140,2014-03-25 16:53:00
11:53 AM,52.0,12.9,21,29.98,10.0,SSE,12.7,23.0,N/A,,Clear,160,2014-03-25 17:53:00
12:53 PM,53.1,14.0,21,29.96,10.0,South,16.1,24.2,N/A,,Clear,170,2014-03-25 18:53:00
1:53 PM,55.0,10.9,17,29.91,10.0,SE,11.5,24.2,N/A,,Clear,130,2014-03-25 19:53:00
2:53 PM,55.0,10.9,17,29.86,10.0,SSE,11.5,24.2,N/A,,Clear,150,2014-03-25 20:53:00
3:53 PM,57.0,10.9,16,29.81,10.0,South,10.4,20.7,N/A,,Clear,170,2014-03-25 21:53:00
4:53 PM,57.0,10.0,15,29.78,10.0,SE,15.0,21.9,N/A,,Clear,140,2014-03-25 22:53:00
5:53 PM,55.9,12.0,18,29.76,10.0,SSE,13.8,-,N/A,,Clear,150,2014-03-25 23:53:00
6:31 PM,55.0,12.0,18,29.91,10.0,South,13.8,-,N/A,,Clear,170,2014-03-26 00:31:00
6:53 PM,53.1,10.9,19,29.76,10.0,SSE,13.8,-,N/A,,Clear,160,2014-03-26 00:53:00
7:53 PM,41.0,10.9,29,29.80,10.0,SSE,9.2,-,N/A,,Clear,160,2014-03-26 01:53:00
8:53 PM,45.0,10.9,25,29.71,10.0,SSE,11.5,-,N/A,,Clear,160,2014-03-26 02:53:00
9:53 PM,35.1,12.9,40,29.71,10.0,WSW,8.1,-,N/A,,Clear,250,2014-03-26 03:53:00
10:53 PM,30.0,15.1,54,29.70,10.0,West,8.1,-,N/A,,Clear,260,2014-03-26 04:53:00
11:53 PM,28.0,15.1,58,29.68,10.0,WSW,4.6,-,N/A,,Clear,250,2014-03-26 05:53:00